[[[{"header":{"parameterUnit":"kt","parameterCategory":2,"dx":1,"dy":1,"la1":30.253999710083008,"la2":30.299108505249023,"lo1":-89.0895004272461,"lo2":-89.04439544677734,"nx":28,"ny":28,"refTime":"2022-10-28T21:00:00:Z","depth":0,"parameterNumber":1,"parameterNumberName":"U-component_of_WINDS"},"data":[-11.3196,-11.3335,-11.3395,-11.3581,-11.3666,-11.3803,-11.387,-11.3964,-11.4054,-11.4224,-11.4333,-11.4405,-11.4517,-11.466,-11.4779,-11.4809,-11.4854,-11.4862,-11.4895,-11.4808,-11.4799,-11.4791,-11.4761,-11.4872,-11.4872,-11.4975,-11.4976,-11.4976,-11.3131,-11.3217,-11.3333,-11.3484,-11.3584,-11.3613,-11.3736,-11.3817,-11.3938,-11.4049,-11.4159,-11.4313,-11.4442,-11.4552,-11.4685,-11.4751,-11.4771,-11.4783,-11.4777,-11.4793,-11.4704,-11.4671,-11.4766,-11.4766,-11.4765,-11.4765,-11.4765,-11.4765,-11.3029,-11.3111,-11.3236,-11.3363,-11.3455,-11.3556,-11.3643,-11.3731,-11.3844,-11.399,-11.4038,-11.4175,-11.4296,-11.4484,-11.4561,-11.467,-11.4666,-11.4696,-11.4703,-11.4709,-11.4707,-11.4549,-11.4696,-11.4696,-11.4695,-11.4695,-11.4695,0,-11.2971,-11.3015,-11.3129,-11.3262,-11.3357,-11.3465,-11.3573,-11.3629,-11.3738,-11.3827,-11.396,-11.4046,-11.4216,-11.4346,-11.4483,-11.4557,-11.459,-11.4601,-11.4622,-11.4598,-11.4562,-11.458,-11.4429,-11.4595,-11.4594,-11.4594,-11.4593,-11.4593,-11.287,-11.2958,-11.3117,-11.319,-11.3263,-11.3378,-11.3458,-11.3549,-11.3629,-11.3775,-11.3842,-11.3975,-11.4084,-11.4286,-11.4384,-11.451,-11.4526,-11.4583,-11.4545,-11.4522,-11.4524,-11.4516,-11.4525,-11.4586,-11.4587,-11.4588,-11.4589,0,-11.2807,-11.2901,-11.3056,-11.3204,-11.3244,-11.3331,-11.3457,-11.3541,-11.3615,-11.3741,-11.3776,-11.3891,-11.4019,-11.4108,-11.4271,-11.4314,-11.4458,-11.4473,-11.4417,-11.4424,-11.4482,-11.4474,-11.4659,-11.4687,-11.4576,-11.4577,-11.4578,0,-11.2756,-11.2867,-11.3,-11.3084,-11.3212,-11.3299,-11.3422,-11.3497,-11.3602,-11.3702,-11.3757,-11.3849,-11.3948,-11.4054,-11.4116,-11.425,-11.4281,-11.432,-11.4334,-11.4313,-11.4307,-11.4352,-11.4344,-11.4366,-11.4365,-11.4364,-11.4364,0,-11.2644,-11.2846,-11.2984,-11.3045,-11.3211,-11.3274,-11.3346,-11.3463,-11.354,-11.3654,-11.3705,-11.3831,-11.3899,-11.3997,-11.4074,-11.4045,-11.4241,-11.4216,-11.428,-11.4278,-11.4314,-11.431,-11.4457,-11.4362,-11.4362,-11.4362,-11.4361,0,-11.2614,-11.2729,-11.2916,-11.3055,-11.3104,-11.3195,-11.3325,-11.3424,-11.3542,-11.3588,-11.3678,-11.3722,-11.3847,-11.3817,-11.399,-11.393,-11.3994,-11.4044,-11.405,-11.4061,-11.4023,-11.4089,-11.4224,-11.4239,-11.408,-11.4078,-11.4076,0,-11.246,-11.2672,-11.2747,-11.2922,-11.3032,-11.3085,-11.3188,-11.329,-11.3359,-11.3461,-11.3537,-11.3652,-11.3648,-11.3696,-11.3771,-11.3851,-11.3931,-11.3844,-11.3987,-11.3991,-11.3951,-11.4077,-11.4072,-11.4186,-11.4047,-11.405,-11.4052,0,-11.235,-11.2551,-11.2576,-11.2648,-11.2798,-11.2889,-11.3008,-11.3141,-11.3205,-11.3314,-11.3414,-11.3579,-11.3582,-11.366,-11.3708,-11.3781,-11.388,-11.3773,-11.3777,-11.3787,-11.404,-11.4035,-11.4054,-11.3896,-11.39,-11.3903,-11.4029,0,-11.228,-11.2397,-11.2472,-11.2627,-11.2712,-11.2825,-11.2918,-11.2995,-11.3034,-11.3101,-11.325,-11.3355,-11.3487,-11.3532,-11.3569,-11.3709,-11.3698,-11.3698,-11.367,-11.3753,-11.3797,-11.3815,-11.3598,-11.3598,-11.3598,-11.3597,0,0,-11.2106,-11.2276,-11.2352,-11.2468,-11.2544,-11.2594,-11.2707,-11.2787,-11.2944,-11.2995,-11.2981,-11.3226,-11.331,-11.348,-11.3513,-11.3568,-11.36,-11.3566,-11.3713,-11.3726,-11.3738,-11.3783,-11.38,-11.3597,-11.3597,-11.3597,-11.3597,0,-11.2098,-11.2187,-11.2298,-11.2385,-11.2514,-11.258,-11.2607,-11.2743,-11.2791,-11.2937,-11.2972,-11.3072,-11.3264,-11.3348,-11.3416,-11.355,-11.3569,-11.3584,-11.3625,-11.3708,-11.3721,-11.3733,-11.3779,-11.3795,-11.3596,-11.3596,-11.3596,0,-11.2004,-11.2106,-11.2169,-11.2344,-11.2428,-11.2538,-11.2533,-11.265,-11.2732,-11.2776,-11.2918,-11.2988,-11.3107,-11.3256,-11.3326,-11.3314,-11.3535,-11.3481,-11.3485,-11.3493,-11.3577,-11.3593,-11.3606,-11.3425,-11.3424,-11.3423,0,0,-11.1984,-11.2094,-11.2227,-11.2348,-11.2399,-11.2498,-11.2565,-11.2609,-11.2717,-11.2759,-11.2847,-11.2949,-11.3062,-11.3134,-11.3244,-11.3395,-11.3424,-11.3456,-11.3464,-11.3471,-11.3481,-11.3567,-11.3583,-11.3419,-11.3419,-11.3419,0,0,-11.1973,-11.2133,-11.2152,-11.2305,-11.2407,-11.2544,-11.2614,-11.264,-11.2748,-11.2744,-11.2821,-11.2851,-11.2991,-11.3057,-11.2998,-11.3234,-11.3205,-11.3221,-11.3185,-11.3197,-11.3205,-11.3184,-11.3003,0,0,0,0,0,-11.201,-11.2114,-11.213,-11.2169,-11.2387,-11.2536,-11.2564,-11.263,-11.2609,-11.2664,-11.2742,-11.2758,-11.3041,-11.2991,-11.3028,-11.3091,-11.3372,-11.338,-11.3388,-11.3378,-11.3389,-11.3399,0,0,0,0,0,0,-11.2026,-11.2074,-11.2127,-11.2267,-11.2317,-11.2533,-11.2511,-11.2532,-11.2605,-11.2606,-11.2742,-11.2762,-11.282,-11.2977,-11.3009,-11.3067,-11.2992,-11.3375,-11.3382,-11.3389,-11.3382,-11.3391,-11.3399,0,0,0,0,0,-11.2039,-11.2077,-11.2409,-11.2266,-11.2309,-11.2423,-11.2507,-11.2525,-11.2582,-11.2702,-11.2722,-11.2626,-11.282,-11.2851,-11.2996,-11.3051,-11.297,-11.2982,-11.338,-11.3386,-11.3391,-11.3387,0,0,0,0,0,0,-11.2049,-11.2094,-11.242,-11.2435,-11.2231,-11.2412,-11.2443,-11.2518,-11.2674,-11.2695,-11.2588,-11.2587,-11.2821,-11.2845,-11.2869,-11.3042,-11.2953,-11.2965,-11.2972,-11.3384,-11.3389,-11.3392,0,0,0,0,0,0,-11.2074,-11.2107,-11.2428,-11.238,-11.2391,-11.2402,-11.2429,-11.2561,-11.2676,-11.2552,-11.2557,-11.2586,-11.2784,-11.2842,-11.286,-11.3064,-11.2939,-11.2951,-11.2958,-11.2963,-11.3388,-11.3391,0,0,0,0,0,0,-11.2089,-11.2117,-11.2376,-11.2384,-11.2394,-11.2573,-11.252,-11.2738,-11.2637,-11.2545,-11.2629,-11.2626,-11.278,-11.2801,-11.2854,-11.3049,-11.306,-11.294,-11.2947,-11.2953,-11.2956,0,0,0,0,0,0,0,-11.2101,-11.1896,-11.2327,-11.2388,-11.2396,-11.2579,-11.2584,-11.2588,-11.2636,-11.2633,-11.263,-11.2627,-11.2874,-11.2887,-11.2899,-11.3037,0,0,-11.2938,-11.2944,0,0,0,0,0,0,0,0,-11.1885,-11.1893,-11.2328,-11.2331,-11.2334,-11.258,-11.2583,-11.2587,-11.2635,-11.2633,-11.263,-11.2628,-11.2878,-11.2888,-11.2898,0,0,0,0,0,0,0,0,0,0,0,0,0,0,0,-11.2328,-11.2331,0,-11.258,-11.2583,-11.2586,-11.2635,-11.2633,-11.2631,-11.2629,-11.288,-11.2889,-11.2897,0,0,0,0,0,0,0,0,0,0,0,0,0,0,0,0,0,0,0,0,0,0,0,0,0,0,0,0,0,0,0,0,0,0,0,0,0,0,0,0,0,0,0,0,0,0,0,0,0,0,0,0,0,0,0,0,0,0,0,0,0,0,0,0,0,0,0,0,0]}],[{"header":{"parameterUnit":"kt","parameterCategory":2,"dx":1,"dy":1,"la1":30.253999710083008,"la2":30.299108505249023,"lo1":-89.0895004272461,"lo2":-89.04439544677734,"nx":28,"ny":28,"refTime":"2022-10-28T21:00:00:Z","depth":0,"parameterNumber":2,"parameterNumberName":"V-component_of_WINDS"},"data":[9.2567,9.2611,9.2611,9.2661,9.2668,9.2701,9.2712,9.2726,9.2735,9.2773,9.2794,9.2793,9.2799,9.2821,9.2841,9.284,9.285,9.287,9.2865,9.2779,9.2767,9.2755,9.2747,9.2872,9.2872,9.2955,9.2956,9.2957,9.2515,9.2524,9.2548,9.2571,9.2593,9.2575,9.2589,9.2608,9.2637,9.2647,9.2666,9.2696,9.2719,9.2715,9.2735,9.2755,9.2745,9.2761,9.276,9.2761,9.2669,9.266,9.2769,9.2769,9.2769,9.2769,9.2769,9.2769,9.242,9.2446,9.2459,9.2485,9.2495,9.2509,9.2532,9.2532,9.2553,9.2575,9.2563,9.2593,9.26,9.2618,9.2621,9.2644,9.2625,9.2639,9.2643,9.2647,9.2656,9.2545,9.2646,9.2645,9.2645,9.2645,9.2644,0,9.2351,9.2348,9.2369,9.2392,9.241,9.2424,9.2437,9.245,9.2436,9.2453,9.2478,9.249,9.2514,9.2535,9.2549,9.2548,9.2526,9.252,9.2531,9.254,9.2549,9.2549,9.2403,9.2517,9.2515,9.2515,9.2514,9.2514,9.2259,9.2286,9.2294,9.231,9.2316,9.2339,9.2352,9.2336,9.235,9.236,9.2381,9.2401,9.2416,9.2451,9.2443,9.2458,9.2447,9.2493,9.2448,9.2458,9.2452,9.2452,9.2457,9.2501,9.2503,9.2504,9.2505,0,9.2208,9.2201,9.2241,9.2244,9.2245,9.2274,9.2276,9.2297,9.229,9.2319,9.2324,9.2313,9.2334,9.2317,9.2335,9.2326,9.2374,9.2361,9.2375,9.2373,9.2415,9.2412,9.2544,9.2563,9.2429,9.2431,9.2432,0,9.2127,9.2161,9.2149,9.2172,9.2211,9.2193,9.2231,9.2228,9.2232,9.2254,9.2226,9.2246,9.2221,9.2239,9.2224,9.226,9.2261,9.2257,9.2253,9.2261,9.2262,9.2266,9.2261,9.2237,9.2237,9.2236,9.2235,0,9.205,9.208,9.2117,9.2122,9.2125,9.2143,9.2144,9.2145,9.2156,9.2165,9.2172,9.2183,9.2189,9.2198,9.218,9.2152,9.2221,9.2178,9.2217,9.2218,9.2233,9.2232,9.2354,9.2235,9.2234,9.2234,9.2234,0,9.1982,9.1996,9.2049,9.2052,9.206,9.2081,9.2094,9.2109,9.2111,9.2105,9.2111,9.2088,9.2114,9.2074,9.2111,9.208,9.2088,9.2085,9.2087,9.2089,9.2044,9.2119,9.2234,9.2247,9.2092,9.2091,9.209,0,9.19,9.1949,9.1933,9.1982,9.2003,9.1972,9.1996,9.1998,9.199,9.2005,9.1995,9.2009,9.1975,9.1976,9.1997,9.1986,9.2026,9.1979,9.2,9.2001,9.2006,9.2111,9.2134,9.2211,9.2074,9.2075,9.2077,0,9.1833,9.1835,9.1844,9.185,9.1849,9.1863,9.1889,9.1901,9.1913,9.1914,9.1936,9.1952,9.1929,9.193,9.191,9.1932,9.1998,9.1901,9.1901,9.1923,9.2062,9.2085,9.2098,9.198,9.1982,9.1983,9.2064,0,9.1741,9.1761,9.1785,9.1793,9.1801,9.1827,9.1809,9.182,9.1803,9.1793,9.1821,9.1811,9.1817,9.1823,9.1803,9.1858,9.1845,9.1817,9.1775,9.1843,9.187,9.188,9.1739,9.1737,9.1736,9.1735,0,0,9.1665,9.1693,9.1671,9.1695,9.1701,9.1665,9.1696,9.1695,9.1694,9.1698,9.1676,9.1697,9.1687,9.1723,9.1743,9.1742,9.1751,9.1725,9.181,9.1819,9.1827,9.1855,9.1866,9.1733,9.1733,9.1732,9.1732,0,9.1628,9.1625,9.1655,9.1655,9.1654,9.1641,9.1648,9.1638,9.1632,9.1657,9.1624,9.1637,9.1649,9.1647,9.1647,9.1722,9.1694,9.1724,9.1774,9.1799,9.1809,9.1818,9.1849,9.1859,9.1729,9.1729,9.1729,0,9.1562,9.1557,9.1568,9.1576,9.1573,9.1591,9.1546,9.1563,9.1576,9.1528,9.1553,9.1543,9.1535,9.1569,9.1582,9.156,9.1644,9.161,9.1617,9.1617,9.164,9.1653,9.1663,9.1522,9.1521,9.1521,0,0,9.1531,9.1548,9.1534,9.1566,9.1567,9.1546,9.1552,9.1534,9.1529,9.1527,9.1513,9.1508,9.1516,9.1521,9.1526,9.1564,9.1561,9.1586,9.1595,9.1603,9.1609,9.1634,9.1646,9.1518,9.1518,9.1518,0,0,9.1515,9.1502,9.1485,9.152,9.1519,9.1504,9.1524,9.1502,9.1504,9.1498,9.1464,9.146,9.149,9.148,9.1453,9.151,9.1469,9.1475,9.1516,9.1528,9.1538,9.154,9.14,0,0,0,0,0,9.1467,9.1504,9.149,9.1492,9.1498,9.1513,9.1513,9.1488,9.1463,9.148,9.1465,9.1433,9.146,9.1435,9.1436,9.1466,9.1489,9.1494,9.1499,9.1561,9.1574,9.1585,0,0,0,0,0,0,9.1468,9.1471,9.1488,9.1475,9.1476,9.1511,9.1463,9.1457,9.146,9.1455,9.1437,9.1432,9.1408,9.1432,9.1434,9.1463,9.1399,9.1491,9.1496,9.15,9.1566,9.1576,9.1585,0,0,0,0,0,9.1468,9.1471,9.1486,9.1474,9.1475,9.1452,9.1461,9.1456,9.1457,9.1432,9.1427,9.1439,9.141,9.1409,9.1433,9.1463,9.1398,9.1398,9.1494,9.1498,9.1501,9.1571,0,0,0,0,0,0,9.1469,9.1465,9.1486,9.1485,9.1458,9.1449,9.1447,9.1455,9.1434,9.1429,9.1432,9.1427,9.1411,9.1411,9.141,9.1465,9.1397,9.1397,9.1398,9.1497,9.1499,9.1502,0,0,0,0,0,0,9.1463,9.1465,9.1486,9.1466,9.1463,9.1447,9.1445,9.1459,9.1434,9.1434,9.143,9.143,9.141,9.1412,9.1411,9.1434,9.1396,9.1396,9.1397,9.1397,9.1499,9.1501,0,0,0,0,0,0,9.1464,9.1465,9.1466,9.1464,9.1461,9.145,9.1458,9.1463,9.1422,9.1435,9.1417,9.1415,9.1412,9.1411,9.1412,9.1435,9.1434,9.1396,9.1396,9.1397,9.1397,0,0,0,0,0,0,0,9.1464,9.1462,9.1491,9.1462,9.1459,9.1478,9.1478,9.1478,9.1422,9.142,9.1418,9.1416,9.1392,9.1393,9.1393,9.1437,0,0,9.1396,9.1396,0,0,0,0,0,0,0,0,9.1461,9.1462,9.1491,9.1491,9.1491,9.1478,9.1478,9.1478,9.1421,9.142,9.1418,9.1417,9.1392,9.1393,9.1393,0,0,0,0,0,0,0,0,0,0,0,0,0,0,0,9.1491,9.1491,0,9.1478,9.1478,9.1478,9.1421,9.142,9.1419,9.1418,9.1392,9.1393,9.1393,0,0,0,0,0,0,0,0,0,0,0,0,0,0,0,0,0,0,0,0,0,0,0,0,0,0,0,0,0,0,0,0,0,0,0,0,0,0,0,0,0,0,0,0,0,0,0,0,0,0,0,0,0,0,0,0,0,0,0,0,0,0,0,0,0,0,0,0,0]}]]]